This is the latest recevied weather packets stored in our database for station/object N5GC-2. If no packets are shown the sender has not sent any weather packets the latest 10 day(s).
| Time | Temp. | Humidity | Pressure | Rain* | Wind** | Luminosity | Snow |
|---|---|---|---|---|---|---|---|
| 1777501347 | 22.78° C | 52% | - | 0 mm | - | - | - |
| 1777501045 | 22.22° C | 52% | - | 0 mm | - | - | - |
| 1777500440 | 22.22° C | 51% | - | 0 mm | - | - | - |
| 1777500135 | 22.22° C | 51% | - | 0 mm | - | - | - |
| 1777499833 | 22.22° C | 52% | - | 0 mm | - | - | - |
| 1777498620 | 22.78° C | 52% | - | 0 mm | - | - | - |
| 1777498316 | 22.78° C | 50% | - | 0 mm | - | - | - |
| 1777498015 | 22.78° C | 50% | - | 0 mm | - | - | - |
| 1777495586 | 23.33° C | 48% | - | 0 mm | - | - | - |
| 1777490432 | 22.22° C | 48% | - | 0 mm | - | - | - |
| 1777488916 | 22.78° C | 50% | - | 0 mm | - | - | - |
| 1777487404 | 22.78° C | 48% | - | 0 mm | - | - | - |
| 1777486192 | 22.22° C | 48% | - | 0 mm | - | - | - |
| 1777484371 | 21.11° C | 52% | - | 0 mm | - | - | - |
| 1777483460 | 21.11° C | 52% | - | 0 mm | - | - | - |
| 1777482245 | 21.11° C | 53% | - | 0 mm | - | - | - |
| 1777481942 | 21.11° C | 59% | - | 0 mm | - | - | - |
| 1777481640 | 21.11° C | 56% | - | 0 mm | - | - | - |
| 1777480729 | 20.56° C | 61% | - | 0 mm | - | - | - |
| 1777480426 | 20.56° C | 60% | - | 0 mm | - | - | - |
| 1777480122 | 20.56° C | 63% | - | 0 mm | - | - | - |
| 1777479818 | 20° C | 63% | - | 0 mm | - | - | - |
| 1777479516 | 20° C | 64% | - | 0 mm | - | - | - |
| 1777479213 | 20° C | 65% | - | 0 mm | - | - | - |
| 1777478910 | 20° C | 69% | - | 0 mm | - | - | - |
* Rain latest hour (hover to see other rain measurements)
** Current wind speed in m/s (hover to see current wind gust speed)